Middlebury State AP, Middlebu, VT

10:42 PM EDT on October 18, 2019 (GMT -0400)
Middlebury State AP, Middlebu

Weather History for K6B0 - August, 2019

Change the Weather History Date:

Monday, August 26, 2019

  Actual Average (KRUT) Record (KRUT)
Temperature  
Mean Temperature 60 °F -  
Max Temperature 75 °F 78 °F 99 °F (2013)
Min Temperature 46 °F 53 °F 41 °F (1977)
Degree Days  
Heating Degree Days 4    
Growing Degree Days 10 (Base 50)    
Moisture  
Dew Point 50 °F    
Average Humidity 66    
Maximum Humidity 97    
Minimum Humidity 43    
Precipitation  
Precipitation 0.00 in - - ()
Sea Level Pressure  
Sea Level Pressure 30.22 in    
Wind  
Wind Speed 1 mph ()    
Max Wind Speed 6 mph    
Max Gust Speed -    
Visibility 10.0 miles    
Events      
Averages and records for this station are not official NWS values.
T = Trace of Precipitation, MM = Missing Value Source: Averaged Metar Reports

Daily Weather History Graph

Daily Weather History Graph

Search for Another Location

Airport or City:

Astronomy

Aug. 26, 2019 Rise Set
Actual Time 6:08 AM EDT 7:39 PM EDT
Civil Twilight 5:38 AM EDT 8:09 PM EDT
Nautical Twilight 5:01 AM EDT 8:45 PM EDT
Astronomical Twilight 4:22 AM EDT 9:24 PM EDT
Moon 1:23 AM EDT (8/26) 5:07 PM EDT (8/26)
Length of Visible Light 14h 30m
Length of Day
13h 30m
Waning Crescent, 19% of the Moon is Illuminated
Aug 26
Waning Crescent
Aug 30
New
Sep 5
First Quarter
Sep 14
Full
Sep 21
Last Quarter

Hourly Weather History & Observations

Time (EDT) Temp. Dew Point Humidity Pressure Visibility Wind Dir Wind Speed Gust Speed Precip Events Conditions
12:15 AM 61.5 °F 43.9 °F 52% 30.29 in 10.0 mi SSE 3.5 mph - N/A   Clear
12:16 AM 61.7 °F 43.9 °F 52% 30.29 in 10.0 mi SSE 4.6 mph - N/A   Clear
12:38 AM 60.3 °F 44.2 °F 55% 30.29 in 10.0 mi SSE 3.5 mph - N/A   Clear
12:56 AM 55.9 °F 45.7 °F 68% 30.29 in 10.0 mi SW 3.5 mph - N/A   Clear
1:16 AM 51.6 °F 46.2 °F 82% 30.29 in 10.0 mi SSW 3.5 mph - N/A   Clear
1:35 AM 51.4 °F 46.2 °F 82% 30.30 in 10.0 mi Calm Calm - N/A   Clear
1:36 AM 51.6 °F 46.4 °F 82% 30.30 in 10.0 mi Calm Calm - N/A   Clear
1:55 AM 50.5 °F 46.2 °F 85% 30.29 in 10.0 mi Calm Calm - N/A   Clear
1:59 AM 50.7 °F 46.2 °F 85% 30.29 in 10.0 mi Calm Calm - N/A   Clear
2:17 AM 49.1 °F 45.5 °F 87% 30.29 in 10.0 mi Calm Calm - N/A   Clear
2:36 AM 48.7 °F 46.4 °F 92% 30.29 in 10.0 mi Calm Calm - N/A   Clear
2:55 AM 49.3 °F 46.6 °F 90% 30.29 in 10.0 mi Calm Calm - N/A   Clear
3:15 AM 49.3 °F 46.6 °F 90% 30.29 in 10.0 mi Calm Calm - N/A   Clear
3:56 AM 47.8 °F 46.2 °F 94% 30.28 in 10.0 mi Calm Calm - N/A   Clear
4:16 AM 47.7 °F 46.6 °F 96% 30.29 in 10.0 mi Calm Calm - N/A   Clear
4:35 AM 47.7 °F 45.9 °F 93% 30.29 in 10.0 mi Calm Calm - N/A   Clear
4:36 AM 47.5 °F 45.5 °F 93% 30.29 in 10.0 mi Calm Calm - N/A   Clear
4:55 AM 47.5 °F 46.2 °F 95% 30.29 in 10.0 mi Calm Calm - N/A   Clear
4:59 AM 47.5 °F 46.0 °F 95% 30.29 in 10.0 mi Calm Calm - N/A   Clear
5:17 AM 48.2 °F 46.6 °F 94% 30.29 in 10.0 mi Calm Calm - N/A   Clear
5:35 AM 46.9 °F 45.5 °F 95% 30.29 in 10.0 mi Calm Calm - N/A   Clear
6:15 AM 47.5 °F 46.4 °F 96% 30.30 in 10.0 mi Calm Calm - N/A   Clear
6:39 AM 47.3 °F 46.4 °F 97% 30.30 in 10.0 mi Calm Calm - N/A   Clear
6:57 AM 46.6 °F 45.7 °F 97% 30.30 in 10.0 mi Calm Calm - N/A   Clear
7:16 AM 47.3 °F 46.2 °F 96% 30.30 in 10.0 mi Calm Calm - N/A   Clear
7:35 AM 50.0 °F 48.0 °F 93% 30.30 in 10.0 mi Calm Calm - N/A   Clear
7:36 AM 50.2 °F 48.2 °F 93% 30.30 in 10.0 mi Calm Calm - N/A   Clear
7:55 AM 52.5 °F 49.5 °F 89% 30.30 in 10.0 mi Calm Calm - N/A   Clear
7:59 AM 53.1 °F 49.6 °F 88% 30.30 in 10.0 mi Calm Calm - N/A   Clear
8:17 AM 54.5 °F 50.7 °F 87% 30.30 in 10.0 mi Calm Calm - N/A   Clear
8:35 AM 57.0 °F 52.3 °F 84% 30.30 in 10.0 mi Calm Calm - N/A   Clear
8:55 AM 59.2 °F 53.4 °F 81% 30.30 in 10.0 mi Calm Calm - N/A   Clear
8:56 AM 59.2 °F 53.1 °F 80% 30.30 in 10.0 mi Calm Calm - N/A   Clear
9:15 AM 61.7 °F 53.8 °F 75% 30.29 in 10.0 mi Calm Calm - N/A   Clear
9:16 AM 61.9 °F 54.0 °F 75% 30.29 in 10.0 mi Calm Calm - N/A   Clear
9:39 AM 64.4 °F 48.6 °F 56% 30.28 in 10.0 mi NNE 3.5 mph - N/A   Clear
9:57 AM 64.9 °F 47.7 °F 54% 30.28 in 10.0 mi Calm Calm - N/A   Clear
10:15 AM 65.8 °F 49.1 °F 55% 30.28 in 10.0 mi North 4.6 mph - N/A   Clear
10:35 AM 66.7 °F 48.9 °F 53% 30.27 in 10.0 mi North 3.5 mph - N/A   Clear
10:36 AM 66.9 °F 48.9 °F 52% 30.27 in 10.0 mi Calm Calm - N/A   Clear
10:55 AM 67.5 °F 48.7 °F 51% 30.27 in 10.0 mi NE 3.5 mph - N/A   Clear
11:15 AM 68.4 °F 48.7 °F 49% 30.26 in 10.0 mi North 4.6 mph - N/A   Clear
11:56 AM 69.8 °F 50.9 °F 51% 30.25 in 10.0 mi NE 3.5 mph - N/A   Clear
12:15 PM 71.2 °F 50.0 °F 47% 30.24 in 10.0 mi Calm Calm - N/A   Clear
12:16 PM 71.4 °F 50.0 °F 47% 30.24 in 10.0 mi Calm Calm - N/A   Clear
12:35 PM 71.2 °F 50.0 °F 47% 30.24 in 10.0 mi Calm Calm - N/A   Clear
12:59 PM 72.3 °F 51.6 °F 48% 30.23 in 10.0 mi West 3.5 mph - N/A   Clear
1:16 PM 72.9 °F 51.6 °F 47% 30.22 in 10.0 mi NW 3.5 mph - N/A   Clear
1:36 PM 72.5 °F 50.2 °F 45% 30.22 in 10.0 mi Calm Calm - N/A   Clear
1:55 PM 72.9 °F 49.3 °F 43% 30.22 in 10.0 mi Calm Calm - N/A   Clear
1:56 PM 72.7 °F 49.1 °F 43% 30.22 in 10.0 mi Calm Calm - N/A   Clear
2:15 PM 73.4 °F 49.5 °F 43% 30.21 in 10.0 mi Calm Calm - N/A   Clear
2:19 PM 73.0 °F 49.5 °F 43% 30.20 in 10.0 mi Calm Calm - N/A   Clear
2:37 PM 73.9 °F 50.2 °F 43% 30.20 in 10.0 mi WNW 4.6 mph - N/A   Clear
2:55 PM 73.2 °F 50.4 °F 44% 30.19 in 10.0 mi NNW 4.6 mph - N/A   Clear
3:15 PM 74.1 °F 51.8 °F 46% 30.19 in 10.0 mi WSW 3.5 mph - N/A   Clear
3:16 PM 74.3 °F 51.4 °F 45% 30.19 in 10.0 mi Calm Calm - N/A   Clear
3:35 PM 74.1 °F 51.1 °F 44% 30.18 in 10.0 mi Calm Calm - N/A   Clear
3:36 PM 73.9 °F 50.4 °F 43% 30.18 in 10.0 mi Calm Calm - N/A   Clear
3:59 PM 75.2 °F 51.3 °F 43% 30.17 in 10.0 mi Calm Calm - N/A   Clear
4:17 PM 74.7 °F 52.0 °F 45% 30.17 in 10.0 mi NW 4.6 mph - N/A   Clear
4:35 PM 74.5 °F 52.0 °F 45% 30.17 in 10.0 mi Calm Calm - N/A   Clear
4:36 PM 74.5 °F 51.4 °F 44% 30.17 in 10.0 mi Calm Calm - N/A   Clear
4:55 PM 74.3 °F 51.1 °F 44% 30.16 in 10.0 mi Calm Calm - N/A   Clear
5:15 PM 74.5 °F 52.3 °F 46% 30.16 in 10.0 mi West 3.5 mph - N/A   Clear
5:19 PM 75.0 °F 50.9 °F 43% 30.16 in 10.0 mi Calm Calm - N/A   Clear
5:37 PM 74.5 °F 54.5 °F 50% 30.15 in 10.0 mi Calm Calm - N/A   Clear
5:55 PM 73.8 °F 54.0 °F 50% 30.15 in 10.0 mi Calm Calm - N/A   Clear
6:15 PM 71.8 °F 59.0 °F 64% 30.15 in 10.0 mi Calm Calm - N/A   Clear
6:16 PM 71.6 °F 59.2 °F 65% 30.15 in 10.0 mi Calm Calm - N/A   Clear
6:35 PM 70.0 °F 57.6 °F 65% 30.15 in 10.0 mi Calm Calm - N/A   Clear
6:36 PM 69.8 °F 57.4 °F 65% 30.15 in 10.0 mi Calm Calm - N/A   Clear
6:57 PM 68.0 °F 59.4 °F 74% 30.14 in 10.0 mi Calm Calm - N/A   Clear
7:15 PM 66.6 °F 59.2 °F 77% 30.15 in 10.0 mi Calm Calm - N/A   Clear
7:35 PM 64.6 °F 58.3 °F 80% 30.14 in 10.0 mi ENE 4.6 mph - N/A   Clear
7:36 PM 64.4 °F 58.3 °F 80% 30.14 in 10.0 mi ENE 4.6 mph - N/A   Clear
7:55 PM 62.8 °F 54.0 °F 73% 30.15 in 10.0 mi East 3.5 mph - N/A   Clear
8:19 PM 61.2 °F 53.2 °F 75% 30.15 in 10.0 mi Calm Calm - N/A   Clear
8:56 PM 63.1 °F 50.0 °F 62% 30.15 in 10.0 mi ESE 3.5 mph - N/A   Clear
9:15 PM 64.2 °F 49.1 °F 58% 30.15 in 10.0 mi Calm Calm - N/A   Clear
9:16 PM 64.0 °F 49.1 °F 58% 30.15 in 10.0 mi SE 3.5 mph - N/A   Clear
9:35 PM 64.8 °F 47.1 °F 53% 30.15 in 10.0 mi SE 3.5 mph - N/A   Clear
9:39 PM 64.2 °F 47.5 °F 55% 30.15 in 10.0 mi Calm Calm - N/A   Clear
9:56 PM 63.1 °F 48.4 °F 59% 30.14 in 10.0 mi SE 3.5 mph - N/A   Clear
10:15 PM 65.1 °F 46.8 °F 51% 30.14 in 10.0 mi ESE 5.8 mph - N/A   Clear
10:16 PM 65.1 °F 46.8 °F 51% 30.14 in 10.0 mi ESE 4.6 mph - N/A   Clear
10:35 PM 65.5 °F 46.6 °F 50% 30.14 in 10.0 mi SE 4.6 mph - N/A   Clear
10:36 PM 65.5 °F 46.6 °F 50% 30.14 in 10.0 mi SE 4.6 mph - N/A   Clear
10:55 PM 64.6 °F 46.8 °F 52% 30.14 in 10.0 mi Calm Calm - N/A   Clear
10:59 PM 63.9 °F 47.3 °F 55% 30.14 in 10.0 mi Calm Calm - N/A   Clear
11:16 PM 56.5 °F 49.1 °F 76% 30.14 in 10.0 mi Calm Calm - N/A   Clear
11:36 PM 55.2 °F 48.9 °F 79% 30.14 in 10.0 mi Calm Calm - N/A   Clear
11:55 PM 53.8 °F 49.1 °F 84% 30.14 in 10.0 mi Calm Calm - N/A   Clear
11:56 PM 53.8 °F 49.1 °F 84% 30.14 in 10.0 mi Calm Calm - N/A   Clear